Location: Azul
(36.7830°S, 59.8500°W)
Time: 09:51:08
(UTC-03:00)

NOAA 19 - Pass Details

Date: 29 October 2021
Orbit: 840 x 861 km, 99.2° (Epoch: 07 December)

Event Time Altitude Azimuth Distance (km) Brightness Sun altitude
Rises 22:19:55 0° 191° (S) 3,473 9.3 -29.2°
Reaches altitude 10° 22:24:48 10° 229° (SW) 2,524 8.6 -29.8°
Maximum altitude 22:25:43 10° 238° (WSW) 2,492 8.5 -30.0°
Drops below altitude 10° 22:26:39 10° 248° (WSW) 2,519 8.4 -30.1°
Sets 22:31:30 0° 286° (WNW) 3,440 8.6 -30.7°
